Vorticity
nan nan nan nan nan nan nan nan nan nan nan nan nan nan nan nan nan nan nan nan nan nan nan nan nan nan nan nan nan nan nan nan nan nan nan nan nan nan nan nan nan nan nan nan nan nan nan nan nan nan nan nan nan nan nan nan nan nan nan nan nan nan nan nan nan nan nan nan nan nan nan nan nan nan nan nan nan nan nan nan nan nan nan nan nan nan nan nan nan nan nan nan nan nan nan nan nan nan nan nan nan nan nan
nan 7 10 11 11 8 6 6 5 5 5 4 3 3 4 5 6 7 6 4 2 1 0 3 5 8 9 9 11 12 8 6 4 4 4 5 6 7 8 8 7 6 4 3 3 3 1 -2 1 4 4 4 4 5 6 6 6 6 6 6 6 6 9 12 11 10 7 5 5 5 4 3 2 2 2 3 4 5 5 5 5 5 5 4 4 3 4 4 5 5 5 5 5 5 5 5 5 5 5 5 5 5 nan
nan 8 10 11 11 9 6 6 6 5 5 4 4 3 3 4 5 6 5 5 4 2 1 3 5 8 10 10 11 11 9 6 4 4 4 5 6 7 8 8 7 6 5 4 4 4 2 -0 1 4 4 4 4 5 6 6 5 6 6 6 7 7 8 11 12 10 6 5 5 4 3 3 2 2 3 4 4 4 4 4 4 4 5 5 5 4 4 5 5 6 6 6 6 7 7 6 6 6 5 5 5 5 nan
nan 9 9 10 10 9 7 6 6 6 6 5 4 3 3 3 3 4 4 5 5 5 3 3 5 8 11 11 11 11 9 7 5 4 4 5 6 7 7 6 6 5 5 5 5 4 3 2 2 3 4 4 4 5 6 6 5 5 5 6 7 7 8 11 11 9 6 5 4 4 3 3 3 3 4 5 5 4 4 4 4 4 5 6 6 5 5 5 6 6 6 7 7 7 7 7 6 5 5 5 5 4 nan
nan 8 8 8 8 8 7 6 6 6 5 5 5 4 3 3 2 3 3 5 6 5 5 4 5 9 10 10 10 11 9 7 5 4 4 5 5 6 6 6 6 6 6 6 5 3 4 6 4 4 5 5 4 5 6 6 5 5 5 7 8 9 9 10 10 8 6 5 4 4 3 3 4 5 5 6 5 5 4 4 4 4 4 6 7 8 8 7 7 7 7 8 8 7 7 6 5 4 4 4 4 4 nan
nan 6 6 7 7 6 6 6 6 6 5 5 5 4 4 3 3 3 3 4 5 5 4 4 5 9 9 9 10 10 9 7 5 5 4 5 5 6 6 6 6 6 7 7 6 4 4 5 6 7 7 6 5 5 5 6 5 5 5 7 8 9 10 10 9 7 6 5 4 3 3 3 4 5 6 6 5 5 4 4 4 4 4 5 7 11 12 10 10 9 9 8 8 7 6 4 4 4 4 3 4 4 nan
nan 5 5 5 4 5 6 6 6 6 5 5 5 5 4 4 3 3 4 4 4 3 4 4 5 9 8 9 9 9 9 8 5 5 5 5 5 5 6 6 6 7 8 7 6 4 3 5 7 8 7 6 6 5 5 6 5 5 5 8 10 9 10 10 8 7 5 4 4 3 3 3 4 6 7 6 5 4 3 3 4 4 3 3 5 8 12 13 12 11 10 8 7 6 4 4 3 3 4 4 4 5 nan
nan 5 5 6 5 5 5 5 6 5 5 5 5 5 5 4 4 4 4 4 2 2 2 3 6 8 8 10 10 9 8 7 6 5 5 5 5 5 6 6 6 7 7 7 6 5 3 3 7 8 6 6 7 5 5 6 5 5 6 8 10 11 10 9 8 6 5 4 4 3 3 3 5 7 7 6 5 4 4 4 4 4 4 3 3 4 7 10 10 10 9 7 5 4 4 3 4 4 4 5 5 5 nan
nan 5 5 5 6 6 5 5 5 5 6 6 6 6 5 5 5 5 5 4 2 2 2 4 6 7 8 11 10 9 8 7 7 6 5 6 6 6 6 6 6 7 7 7 6 5 2 1 5 7 7 7 8 7 4 4 5 5 6 7 8 10 10 9 7 6 5 5 4 4 4 5 7 8 7 6 5 4 4 4 5 5 4 3 3 2 3 5 6 6 6 5 4 3 3 4 4 4 4 5 5 5 nan
nan 5 5 5 7 7 6 4 4 5 6 6 6 6 5 5 5 5 6 5 3 3 3 4 7 8 10 12 11 9 8 6 7 6 6 6 6 6 5 5 6 6 7 7 6 5 0 -1 4 6 7 8 8 7 4 3 5 6 7 8 7 7 9 8 7 5 5 5 5 5 6 8 9 9 7 5 4 4 4 5 5 5 5 5 4 3 3 3 3 3 3 3 3 3 3 3 3 4 4 5 5 5 nan
nan 6 6 5 6 7 7 5 5 5 5 6 6 5 5 5 5 6 6 5 4 3 3 5 7 9 13 15 13 10 7 5 6 6 8 7 7 7 6 5 6 6 6 7 7 5 -1 -1 3 5 7 9 8 6 4 5 6 6 8 9 8 7 7 7 7 6 5 5 5 6 8 11 11 10 7 5 4 4 4 5 5 6 6 6 5 5 4 3 3 3 3 3 3 3 3 3 4 4 4 4 5 5 nan
nan 6 7 7 7 8 7 6 6 5 5 5 5 5 5 5 5 6 6 5 4 3 3 4 8 11 16 18 16 12 7 5 5 7 9 8 8 7 6 5 5 6 7 8 7 3 -3 -3 3 5 6 8 7 6 5 6 7 6 9 10 8 8 7 7 6 5 5 5 5 6 8 11 12 10 6 4 4 4 4 5 5 6 6 7 6 6 5 5 4 4 3 3 4 4 4 4 4 4 4 5 5 5 nan
nan 7 8 8 8 8 8 7 6 6 5 6 6 6 5 5 6 6 6 6 4 3 2 4 8 14 20 22 18 13 7 4 5 7 8 8 8 8 7 5 5 6 8 8 4 -1 -4 -0 5 6 5 6 6 6 6 6 7 7 9 11 7 7 7 7 6 5 6 5 5 5 7 10 10 8 6 4 4 4 4 5 5 6 6 7 7 7 7 6 6 5 5 5 5 5 5 5 5 5 5 5 5 5 nan
nan 8 8 9 9 9 8 7 6 6 6 6 7 7 7 7 7 7 7 6 5 4 2 3 7 15 23 25 20 13 6 4 5 7 8 8 8 9 8 5 6 7 7 3 -1 -2 3 6 6 5 4 5 7 8 6 5 7 9 9 10 7 6 6 6 6 5 6 6 5 5 6 7 7 6 4 4 4 4 4 5 5 6 6 6 7 7 7 7 7 7 6 6 6 6 6 6 6 6 6 5 5 5 nan
nan 8 8 9 10 9 7 6 6 6 6 6 7 9 9 9 8 8 7 7 6 4 3 3 6 13 22 25 19 12 5 3 4 6 8 9 9 9 8 6 6 6 2 -3 -0 5 9 8 5 4 5 5 6 7 7 5 7 11 10 8 7 6 5 5 5 5 6 7 6 5 5 5 5 4 4 3 4 4 4 5 5 6 6 6 6 7 7 7 7 7 6 6 6 6 6 6 6 6 6 5 5 5 nan
nan 10 9 9 9 8 7 6 6 5 6 6 7 9 10 10 10 9 8 7 7 6 4 3 6 9 17 20 16 10 5 4 4 6 9 11 11 10 8 6 5 2 -3 -1 5 9 9 6 4 5 6 5 5 6 6 7 9 12 11 8 7 6 5 4 5 5 6 7 7 6 5 5 5 4 4 4 4 4 5 5 5 6 6 6 6 6 6 6 6 6 6 6 6 6 6 6 6 6 6 5 5 5 nan
nan 11 10 9 8 8 7 6 6 6 6 6 7 8 9 9 10 10 9 8 9 7 5 4 5 7 11 12 9 4 4 6 7 8 10 12 12 12 9 5 1 -4 -3 4 8 9 8 6 4 5 6 5 5 6 5 7 11 11 11 8 6 5 4 4 4 5 6 7 7 7 6 6 5 5 5 5 5 5 5 5 6 6 6 6 6 6 6 6 6 6 6 5 5 5 5 5 5 5 5 5 5 5 nan
nan 11 11 10 9 8 7 7 6 6 6 7 7 7 8 8 8 9 9 9 10 9 7 6 6 6 8 5 2 -1 2 7 8 8 12 13 13 14 10 2 -2 -4 1 7 8 8 7 6 6 6 7 6 5 6 6 8 13 12 10 7 6 5 4 4 4 5 6 7 7 7 7 6 6 6 6 6 6 6 6 6 6 6 6 6 6 6 6 5 5 5 5 5 5 5 5 5 5 4 4 4 4 5 nan
nan 10 11 11 11 9 8 7 7 6 6 6 7 7 7 7 7 7 8 9 10 9 8 8 7 6 5 2 -1 -1 2 6 6 6 10 12 13 14 7 -1 -1 1 5 8 8 8 7 7 6 7 7 7 6 6 7 9 13 13 10 7 6 5 4 4 4 4 5 6 7 7 7 7 7 7 6 6 6 6 6 6 6 6 6 6 6 6 5 5 5 5 5 4 4 4 4 4 4 4 4 4 4 4 nan
nan 11 12 13 12 12 11 10 9 8 8 7 7 9 9 8 7 7 7 8 9 8 8 8 7 7 3 0 1 2 4 6 6 6 7 8 9 10 5 3 4 6 8 9 8 6 6 7 7 7 7 8 8 7 7 10 14 12 9 7 5 4 4 4 4 4 5 6 6 7 7 7 7 7 7 7 6 6 5 5 5 5 5 5 5 5 5 5 5 5 4 4 4 4 4 4 4 4 4 4 4 4 nan
nan 11 13 13 14 14 14 14 13 12 12 9 7 9 11 12 11 11 9 9 10 11 10 7 5 6 4 3 4 4 5 6 6 7 7 7 5 6 6 7 7 7 9 9 7 5 6 7 8 8 8 8 9 8 9 10 13 12 8 7 5 4 4 4 4 4 4 5 6 6 7 7 7 7 6 6 5 5 5 4 4 4 4 4 4 5 4 4 4 4 4 4 4 4 4 4 4 4 4 4 4 4 nan
nan 8 9 10 11 13 14 14 14 14 14 13 8 7 10 12 13 14 11 10 12 13 11 7 4 5 7 8 7 5 4 5 6 7 7 7 5 4 6 8 8 8 9 7 6 6 7 7 8 9 8 8 9 10 13 13 10 10 8 6 5 5 4 4 4 4 4 4 5 5 6 6 6 6 6 5 5 4 4 4 3 3 3 3 3 4 4 4 4 4 4 4 4 4 4 4 3 3 3 3 4 4 nan
nan 6 5 6 7 9 10 11 11 12 14 14 9 7 8 9 11 12 11 10 11 11 10 7 6 6 8 9 8 5 4 5 5 5 6 6 5 4 5 7 7 8 8 7 5 6 7 7 8 8 8 8 9 10 15 17 11 9 8 6 5 5 4 4 4 4 4 4 4 5 5 6 6 6 5 5 4 4 4 3 3 3 3 3 3 3 3 3 4 4 4 4 4 4 4 4 3 3 3 3 3 4 nan
nan 5 7 7 7 8 7 7 8 8 11 12 9 7 7 8 9 9 9 9 10 10 9 6 5 6 8 8 8 6 6 6 5 3 5 6 5 4 5 7 6 6 7 7 5 5 6 7 8 8 8 8 9 11 16 18 13 9 7 6 6 5 5 4 4 4 4 4 4 4 5 5 5 5 5 4 4 3 3 3 3 3 3 3 3 3 3 3 4 4 3 4 5 5 4 4 4 4 3 3 3 3 nan
nan 5 8 9 9 8 7 6 6 6 7 9 9 8 6 7 8 8 8 8 9 9 8 6 5 5 6 7 7 7 7 7 6 4 3 5 5 3 4 6 5 5 6 7 5 5 5 6 7 8 8 7 8 11 17 18 13 9 7 6 6 6 5 5 4 4 4 4 4 4 4 4 5 5 5 4 4 3 3 4 3 4 4 4 3 4 4 4 4 4 3 4 5 6 5 5 5 4 4 4 4 4 nan
nan 6 5 7 7 7 7 7 6 6 6 7 7 8 7 6 6 7 8 8 9 8 7 7 6 5 5 6 6 8 7 7 8 5 4 5 5 4 4 5 5 5 6 6 5 6 6 6 6 7 8 7 8 11 18 19 14 10 7 6 6 6 6 6 5 4 4 4 4 4 4 4 4 5 5 4 4 4 4 4 4 4 4 4 4 4 5 5 5 5 4 4 5 6 6 5 5 5 5 5 5 5 nan
nan 9 7 6 6 6 5 4 5 6 7 6 7 8 7 5 5 6 7 8 9 10 9 9 10 8 8 8 7 7 7 8 10 9 6 5 6 6 5 4 4 6 5 4 5 7 7 6 6 6 6 7 7 9 18 22 16 11 8 6 6 7 7 7 6 5 4 4 4 4 4 4 4 4 5 5 5 5 4 4 3 3 4 4 4 4 5 5 6 6 5 5 6 6 6 5 5 5 6 6 6 6 nan
nan 11 12 9 8 9 8 5 4 5 7 7 7 8 7 4 4 5 5 7 9 10 11 11 11 11 10 11 11 8 6 8 10 12 9 6 7 8 7 5 5 5 4 3 5 6 7 8 7 6 5 6 7 7 14 22 19 14 9 6 6 7 8 8 7 6 5 4 4 5 4 4 4 4 4 5 5 6 5 4 3 3 3 3 4 4 5 5 6 7 8 8 7 7 6 6 5 6 7 7 7 7 nan
nan 10 10 8 7 10 12 12 9 6 5 7 7 8 8 6 5 5 6 7 7 8 9 9 9 9 8 8 10 10 7 8 10 11 9 7 10 10 9 6 5 5 4 4 6 6 7 8 7 6 5 5 6 6 10 18 21 17 11 7 6 6 7 7 7 7 7 6 5 4 4 4 4 4 4 5 5 6 5 4 4 4 4 4 4 4 4 5 6 6 7 8 8 8 7 6 6 6 7 7 7 7 nan
nan 7 6 6 6 9 12 13 13 11 9 5 4 5 8 7 6 5 7 8 7 7 7 7 7 8 7 6 7 7 7 7 8 9 8 8 10 11 9 7 7 5 5 5 5 7 7 8 8 6 6 6 5 5 7 14 20 19 13 9 7 6 6 6 6 6 7 8 6 5 4 5 5 5 4 5 5 5 5 5 6 5 4 4 4 4 4 5 5 5 7 7 7 7 7 6 5 5 6 6 6 6 nan
nan 7 6 8 7 6 8 10 12 12 13 10 6 3 4 5 5 5 6 8 8 7 7 7 8 9 8 7 8 7 8 8 8 9 8 8 10 10 9 8 7 5 4 4 5 7 10 10 7 5 6 7 7 6 5 10 17 20 16 11 9 7 6 5 5 6 7 8 7 6 5 5 5 5 5 5 5 5 5 5 5 5 5 5 5 5 5 5 5 5 5 5 6 6 6 5 5 6 5 5 5 5 nan
nan 11 11 10 7 5 6 7 7 7 8 12 12 8 4 4 5 5 6 6 7 7 7 7 8 8 9 8 8 8 9 8 8 10 8 8 10 12 10 7 6 5 3 3 5 6 8 9 9 7 7 7 6 6 5 7 12 18 20 15 12 10 8 6 5 6 7 8 8 7 6 5 4 4 5 5 5 5 5 5 5 6 6 5 6 6 6 5 5 5 5 6 6 6 6 6 6 6 5 5 5 6 nan
nan 13 14 13 12 10 8 7 7 6 5 8 12 14 13 8 5 3 3 6 7 8 6 6 7 8 7 7 7 8 9 8 7 9 9 8 10 11 12 9 6 4 3 3 4 4 5 8 9 8 8 8 5 4 5 6 8 12 19 19 16 13 10 8 6 6 7 8 8 8 6 5 4 4 4 4 5 5 5 5 5 5 6 6 6 7 7 6 6 7 6 6 7 7 7 6 6 6 6 6 6 7 nan
nan 11 12 13 13 12 9 9 9 10 11 10 11 12 12 11 8 4 1 6 8 8 8 8 7 7 6 6 7 7 8 9 7 7 7 7 8 9 11 10 8 6 5 4 4 4 5 7 8 8 9 9 7 5 4 5 6 8 13 18 18 17 13 10 8 7 7 8 9 8 7 6 5 4 4 4 5 5 5 5 5 5 5 6 6 6 7 7 7 6 7 7 7 7 8 8 8 7 7 8 8 7 nan
nan 8 9 11 12 11 9 8 9 11 13 11 10 10 10 11 13 13 9 8 9 10 9 9 8 7 6 7 7 7 8 9 8 8 7 5 6 8 9 9 9 10 10 8 7 6 6 7 8 9 10 9 8 5 4 5 5 6 11 15 16 18 17 13 11 9 8 8 9 9 8 7 5 4 4 4 4 4 5 5 5 5 5 6 6 6 6 6 6 6 7 7 8 8 8 8 8 8 8 8 8 7 nan
nan 8 7 8 9 10 10 10 9 8 8 9 11 12 13 14 16 18 16 9 8 9 10 8 7 6 7 7 8 8 9 9 9 10 10 8 8 8 9 9 9 10 12 12 10 10 8 7 7 8 10 9 8 6 5 5 5 6 9 12 14 16 19 18 16 14 11 9 8 9 9 8 7 6 4 4 4 4 4 4 5 5 6 6 6 6 6 6 6 6 7 7 8 8 8 8 8 8 7 7 8 8 nan
nan 8 8 8 7 8 10 10 10 9 8 8 10 12 14 14 14 13 12 8 6 6 8 6 6 7 7 7 8 8 8 8 8 9 10 10 9 9 10 11 9 9 10 11 11 12 10 8 6 7 8 8 8 8 7 6 7 6 7 9 10 12 14 17 20 20 18 13 11 10 9 9 8 7 6 5 5 4 4 4 5 6 7 7 7 7 7 6 7 7 7 8 8 9 9 8 7 7 7 8 9 9 nan
nan 8 9 9 7 7 8 8 9 8 9 8 9 10 10 11 10 8 8 9 9 8 7 5 5 7 7 7 7 8 7 5 4 5 8 9 8 8 10 11 10 10 9 10 10 12 11 7 6 6 6 7 8 7 7 7 8 6 6 7 8 8 9 11 14 18 22 21 17 14 11 10 9 8 8 7 7 6 5 5 6 7 9 10 10 9 8 8 8 8 8 9 10 10 9 9 8 7 8 9 10 11 nan
nan 8 8 9 9 8 7 6 6 6 8 8 8 9 8 8 8 8 9 10 11 10 8 8 7 7 6 8 9 10 7 4 3 4 7 8 8 8 9 9 10 9 9 9 9 10 10 7 6 6 7 7 8 8 7 8 9 7 5 6 7 7 8 9 10 11 15 22 24 22 16 12 10 9 9 9 9 9 10 9 10 10 12 13 12 11 10 9 8 8 9 11 11 12 11 9 9 8 9 10 10 10 nan
nan 8 8 9 10 10 9 8 9 9 9 8 8 9 9 9 9 10 11 11 10 10 9 10 9 10 10 10 10 10 8 7 7 7 8 8 7 7 8 8 8 9 10 9 8 8 9 9 9 7 6 7 8 9 9 9 9 7 6 6 6 6 7 8 8 7 9 14 20 26 24 16 12 9 9 9 10 11 12 13 13 14 14 13 12 11 9 8 8 9 10 11 12 12 11 10 9 9 9 9 9 9 nan
nan 8 8 8 9 9 9 11 12 12 10 9 9 9 10 10 11 12 12 11 10 11 11 11 11 13 14 12 10 9 8 9 11 11 9 8 7 6 7 7 7 8 10 9 7 7 9 10 11 9 6 6 7 9 10 10 9 7 6 6 6 6 6 6 7 6 6 9 13 19 26 21 15 11 9 9 9 10 11 12 13 12 12 10 9 8 7 7 8 9 10 10 11 11 10 9 8 8 8 8 8 9 nan
nan 8 8 7 7 7 8 10 11 11 9 9 9 9 9 9 10 11 10 9 9 10 11 12 11 10 10 10 9 8 7 5 7 9 10 10 7 5 5 6 7 8 10 9 7 7 9 11 11 7 3 4 7 9 8 8 8 7 7 7 8 7 6 6 5 6 6 7 9 12 21 24 18 13 11 9 9 8 8 9 9 8 8 7 6 6 5 6 7 8 9 9 10 9 8 7 7 7 7 8 9 9 nan
nan 7 7 8 8 7 7 9 10 10 9 8 8 8 8 8 9 9 9 9 8 7 8 10 9 7 6 7 7 7 6 4 4 6 9 11 10 7 4 6 7 6 8 9 8 8 9 10 9 7 3 5 8 8 7 6 6 6 7 8 9 9 8 6 5 6 7 7 7 9 14 21 21 17 13 11 9 8 7 6 6 6 5 6 6 5 5 5 6 7 8 9 9 8 7 7 7 7 8 9 10 10 nan
nan 7 7 8 8 7 6 7 9 10 10 9 9 8 7 8 9 9 9 9 8 7 6 7 7 6 5 5 6 6 8 9 9 8 9 10 11 10 6 5 7 7 7 8 8 9 9 10 10 9 9 8 10 9 8 5 5 4 5 7 9 10 10 8 6 6 7 7 7 8 9 14 19 20 17 14 12 10 8 7 6 5 6 6 7 7 6 6 7 7 8 8 8 8 7 7 7 8 9 10 11 11 nan
nan 8 8 8 8 7 7 8 9 9 9 10 10 10 7 8 8 8 8 9 9 8 7 7 8 9 8 6 6 8 11 12 12 10 7 8 10 11 7 6 8 9 8 7 8 9 8 8 10 11 11 10 10 10 11 9 6 4 5 6 8 10 10 9 8 7 6 6 7 8 9 9 12 15 18 17 16 15 13 10 8 7 6 7 7 8 7 7 7 8 8 8 8 7 7 7 7 9 10 11 11 11 nan
nan 8 8 8 8 8 8 9 9 9 8 8 10 11 11 9 8 7 7 7 7 8 8 7 8 10 11 9 8 10 12 14 12 10 7 8 10 12 8 6 7 8 6 7 7 9 9 8 8 10 11 10 9 10 12 12 9 7 6 7 7 9 9 10 9 8 7 6 8 9 10 9 8 9 11 13 13 14 15 13 10 8 7 7 8 8 8 8 8 8 8 8 8 7 7 8 8 10 11 11 11 10 nan
nan 7 8 8 7 7 8 9 9 9 8 7 8 9 11 11 10 9 8 7 7 8 9 8 7 8 11 12 11 11 12 16 17 16 12 11 11 13 9 3 3 3 7 10 9 10 9 8 8 9 10 10 9 10 11 12 10 9 8 9 9 10 9 9 9 8 7 7 8 9 9 9 9 7 7 9 9 10 12 14 12 10 8 8 9 9 10 10 10 10 9 9 9 9 9 9 10 11 11 11 9 8 nan
nan 7 8 8 8 8 9 9 8 8 8 8 8 7 8 9 9 9 8 7 8 10 12 11 8 6 6 9 10 11 11 13 16 16 13 10 10 11 8 4 4 5 10 14 14 13 10 7 7 8 9 9 9 9 10 10 10 9 9 10 10 11 11 9 9 7 8 8 9 8 8 8 8 7 7 8 8 8 8 11 13 13 11 9 10 10 11 12 13 13 12 12 12 12 11 11 11 11 11 9 8 7 nan
nan 8 8 9 9 9 9 9 8 8 8 9 9 8 7 7 8 7 6 5 6 9 12 13 12 8 4 6 9 10 10 10 9 8 6 4 5 7 8 10 11 10 10 13 15 16 12 7 8 8 8 8 8 8 9 9 9 8 10 10 10 12 13 10 8 7 9 9 8 7 6 7 7 7 7 8 8 8 8 8 11 13 13 12 12 12 13 13 14 14 14 13 13 13 12 12 11 10 9 8 7 7 nan
nan 7 6 8 9 9 8 9 9 9 9 8 8 8 9 7 7 8 10 6 3 4 8 11 13 13 9 6 8 10 10 9 7 5 7 8 5 6 9 13 13 10 7 9 11 13 12 10 10 9 8 8 8 8 9 9 9 9 10 10 11 12 14 12 10 9 10 10 7 6 6 6 6 7 8 8 8 8 8 8 8 10 12 13 14 15 16 16 16 14 13 13 13 13 12 12 10 9 8 7 7 7 nan
nan 7 6 7 8 8 8 9 9 8 8 8 8 9 11 9 9 10 15 13 9 4 3 7 12 15 14 10 9 10 9 7 7 3 9 14 11 8 7 8 9 7 6 7 8 9 10 10 11 11 8 7 8 10 10 10 10 9 9 10 10 10 11 11 10 10 10 9 8 8 7 6 6 7 8 8 8 7 8 7 7 8 9 10 12 12 14 17 18 15 11 11 11 11 12 11 10 9 8 7 7 7 nan
nan 6 7 7 7 8 9 10 9 8 8 9 11 11 12 13 12 12 13 17 15 11 3 2 5 10 13 12 11 13 11 8 7 2 5 12 12 10 7 4 5 7 8 6 6 6 7 9 10 12 10 7 7 8 9 9 10 9 8 8 7 7 7 8 9 9 9 9 9 10 10 8 8 8 9 8 7 6 6 6 7 7 8 9 10 10 11 11 13 15 12 9 9 10 10 10 9 8 7 7 7 7 nan
nan 6 6 6 7 8 10 11 10 10 10 10 11 10 10 11 10 9 8 12 14 14 10 4 1 2 6 9 10 13 13 12 13 8 5 8 10 11 10 9 7 8 9 7 6 6 5 7 8 10 12 11 8 6 6 7 8 8 7 6 5 4 5 7 9 10 9 8 9 10 11 10 10 11 10 8 7 6 6 6 6 6 8 9 10 10 11 13 12 12 12 11 9 10 11 10 9 8 8 8 8 8 nan
nan 8 6 5 6 7 8 8 9 10 10 9 10 9 8 7 8 8 8 8 9 10 11 9 5 1 2 4 6 8 12 14 14 11 5 5 5 7 9 9 9 9 10 9 8 8 8 9 8 8 11 14 12 8 6 6 5 6 7 6 5 6 7 9 9 10 9 9 10 11 10 10 12 13 10 8 7 7 7 7 7 7 8 8 9 9 11 14 15 13 13 14 13 12 12 11 10 8 8 8 8 8 nan
nan 9 8 6 5 5 6 7 8 9 9 9 9 10 11 11 9 8 10 9 7 5 6 10 10 6 4 4 4 5 10 13 12 10 7 4 2 -0 2 7 8 8 9 11 10 10 10 12 10 7 8 12 13 10 8 8 7 7 8 8 8 8 9 9 8 8 8 10 11 12 11 11 12 13 9 7 7 8 9 9 9 8 8 9 9 9 11 12 13 13 15 16 15 13 13 13 10 9 8 7 8 8 nan
nan 9 8 7 5 4 4 7 7 8 9 9 9 10 12 14 12 10 10 10 9 7 6 11 13 8 2 5 7 6 6 10 13 12 10 8 5 -1 -3 2 5 6 7 9 10 10 10 10 9 7 5 8 12 11 11 13 12 10 9 10 10 10 8 7 7 7 8 9 9 10 11 12 12 11 9 7 8 9 10 10 10 9 9 8 9 9 10 11 11 13 15 16 16 15 14 13 11 9 7 6 6 7 nan
nan 8 7 6 6 5 5 7 8 9 10 10 9 8 9 11 12 13 12 11 11 11 8 10 15 14 4 2 5 9 6 6 11 14 13 12 12 8 2 -2 -0 2 3 8 10 9 11 10 9 6 5 7 11 10 14 16 14 12 11 11 12 12 9 6 7 7 9 9 8 7 10 11 10 9 9 9 9 10 11 10 10 10 9 9 8 8 10 12 11 11 12 12 13 17 16 12 11 9 7 5 5 6 nan
nan 7 7 7 7 7 6 6 8 9 9 9 8 9 9 9 9 11 12 12 11 12 8 7 11 16 14 6 4 8 7 4 6 11 15 15 16 15 8 1 -2 -5 -2 7 11 12 12 9 9 6 7 7 8 7 11 15 13 11 11 11 12 13 13 10 7 7 8 8 7 6 8 9 9 8 9 9 9 11 12 11 10 10 9 8 8 8 11 13 12 10 11 12 13 16 15 11 11 10 7 5 5 5 nan
nan 6 8 8 8 7 7 7 7 7 8 8 7 8 9 9 8 8 10 11 11 11 8 5 8 11 17 14 9 9 11 8 6 6 10 14 17 17 13 9 5 0 -3 1 7 12 9 7 7 8 8 7 6 5 6 11 11 11 10 9 11 13 14 12 10 8 8 8 7 7 7 8 9 9 9 9 10 11 12 11 10 9 8 8 9 10 12 14 13 12 13 13 11 10 11 11 12 11 8 6 5 5 nan
nan 6 8 9 9 8 9 9 8 8 7 8 8 8 8 9 9 9 9 10 12 12 10 7 6 8 12 15 12 10 13 13 9 6 5 8 13 17 15 13 14 12 4 -0 5 10 11 12 9 9 9 9 8 7 5 5 8 10 10 9 10 11 12 12 12 11 10 10 9 9 7 7 8 8 8 9 10 10 12 11 10 9 8 8 10 11 12 13 13 13 12 11 10 8 9 12 13 12 10 7 7 6 nan
nan nan nan nan nan nan nan nan nan nan nan nan nan nan nan nan nan nan nan nan nan nan nan nan nan nan nan nan nan nan nan nan nan nan nan nan nan nan nan nan nan nan nan nan nan nan nan nan nan nan nan nan nan nan nan nan nan nan nan nan nan nan nan nan nan nan nan nan nan nan nan nan nan nan nan nan nan nan nan nan nan nan nan nan nan nan nan nan nan nan nan nan nan nan nan nan nan nan nan nan nan nan nan
CAPE
612 741 790 633 437 437 488 419 316 316 227 148 100 100 103 189 189 292 409 456 456 254 71 28 126 126 370 550 565 565 497 308 174 174 54 12 12 19 41 61 61 83 69 33 21 21 16 nan nan nan nan nan nan nan nan nan nan nan nan nan nan nan nan nan 17 17 7 3 7 7 11 15 13 13 13 14 14 16 13 17 17 19 15 6 0 0 nan nan nan nan nan nan nan nan nan 0 0 0 nan nan nan nan nan
640 726 818 738 502 502 472 367 271 271 245 165 116 116 116 172 172 236 286 328 328 213 89 37 125 125 463 658 594 594 500 376 245 245 92 20 20 21 39 42 42 49 36 15 16 16 5 nan nan nan nan nan nan nan nan nan nan nan nan nan nan nan nan 2 13 13 7 3 8 8 12 16 16 16 17 18 18 19 14 11 11 9 6 3 4 4 3 2 0 0 nan nan nan nan nan nan nan nan nan nan nan nan nan
705 794 887 763 649 649 536 354 230 230 233 181 132 132 109 158 158 188 147 188 188 192 116 63 161 161 521 758 660 660 494 437 299 299 132 51 51 40 28 25 25 18 7 3 3 3 0 nan nan nan nan nan nan nan nan nan nan nan nan nan nan nan nan 2 14 14 4 2 8 8 13 14 15 15 18 19 19 19 10 3 3 0 nan nan 7 7 8 9 6 6 3 nan nan nan nan 0 0 nan nan nan nan nan nan
812 905 914 790 715 715 559 342 223 223 197 172 124 124 148 173 173 175 111 142 142 172 166 118 173 173 548 776 721 721 554 500 352 352 195 120 120 75 28 7 7 4 nan nan nan nan nan nan nan nan nan nan nan nan nan nan nan nan nan nan nan nan nan 13 14 14 2 3 12 12 16 16 17 17 17 16 16 10 4 nan nan nan nan nan 11 11 13 11 9 9 7 4 2 2 3 2 2 1 0 nan nan nan nan
1011 975 852 816 738 738 622 399 246 246 221 166 141 141 165 219 219 221 149 131 131 156 173 145 182 182 493 677 701 701 576 556 406 406 264 182 182 129 31 1 1 1 nan nan nan nan nan nan nan nan nan nan nan nan nan nan nan nan nan nan nan nan nan 12 9 9 1 4 14 14 18 20 18 18 17 13 13 7 1 nan nan nan nan 3 19 19 17 13 9 9 9 11 8 8 6 3 3 0 nan nan nan nan nan
1128 958 791 756 722 722 649 461 365 365 275 216 161 161 184 240 240 273 195 172 172 170 157 152 167 167 438 584 643 643 627 573 466 466 341 246 246 150 35 nan nan 0 nan nan nan nan nan nan nan nan nan nan nan nan nan nan nan nan nan nan nan nan nan 7 5 5 0 5 17 17 25 24 24 24 18 10 10 4 0 nan nan nan nan 3 19 19 19 14 13 13 12 16 15 15 9 2 2 0 nan nan nan nan nan
1063 811 732 699 673 673 640 567 461 461 362 271 237 237 233 263 263 267 273 220 220 165 124 116 151 151 383 492 588 588 645 633 500 500 425 312 312 189 36 nan nan nan nan nan nan nan nan nan nan nan nan nan nan nan nan nan nan nan nan nan nan nan nan 2 3 3 nan 6 23 23 34 33 30 30 17 9 9 4 0 nan nan nan nan nan 7 7 13 16 18 18 16 18 9 9 6 0 0 nan nan nan nan nan nan
912 750 635 646 659 659 669 636 563 563 420 355 291 291 287 290 290 293 297 242 242 141 79 85 113 113 270 471 614 614 640 591 530 530 519 391 391 209 49 nan nan nan nan nan nan nan nan nan nan nan nan nan nan nan nan nan nan nan nan nan nan nan 0 2 2 2 1 7 23 23 39 38 34 34 19 9 9 3 nan nan nan nan nan nan 0 0 5 9 15 15 12 13 3 3 nan nan nan nan nan nan nan nan nan
854 654 581 671 766 766 778 706 630 630 518 411 346 346 344 317 317 320 354 267 267 141 79 61 100 100 174 416 602 602 631 594 525 525 522 419 419 223 60 nan nan nan nan nan nan nan nan nan nan nan nan nan nan nan nan nan nan nan nan nan nan nan 0 1 1 1 5 11 24 24 38 42 34 34 21 10 10 3 nan nan nan nan nan nan nan nan nan 2 4 4 4 2 nan nan nan nan nan nan nan nan nan nan nan
923 681 570 658 831 831 883 811 658 658 544 435 402 402 403 373 373 345 381 323 323 187 98 60 94 94 159 398 618 618 622 590 487 487 547 443 443 216 71 nan nan nan nan nan nan nan nan nan nan nan nan nan nan nan nan nan nan nan nan nan nan nan nan 3 1 1 4 8 22 22 35 44 36 36 20 11 11 3 nan nan nan nan nan nan nan nan nan nan nan nan nan nan nan nan nan nan nan nan nan nan nan nan nan
948 748 599 644 815 815 905 833 725 725 611 535 462 462 429 434 434 404 443 351 351 238 121 64 75 75 148 418 599 599 604 610 541 541 571 468 468 232 66 nan nan nan nan nan nan nan nan nan nan nan nan nan nan nan nan nan nan nan nan nan nan nan 1 5 1 1 nan 2 14 14 26 36 33 33 21 11 11 3 nan nan nan nan nan nan nan nan nan nan nan nan nan nan nan nan nan nan nan nan nan nan nan nan nan
930 768 617 628 758 758 930 898 788 788 678 602 563 563 529 498 498 469 473 411 411 294 145 55 80 80 191 442 621 621 620 629 590 590 584 477 477 264 46 nan nan nan nan nan nan nan nan nan nan nan nan nan nan nan nan nan nan nan nan nan nan nan 6 11 2 2 nan nan 5 5 17 27 32 32 20 9 9 2 nan nan nan nan nan nan nan nan nan nan nan nan nan nan nan nan nan nan nan nan nan nan nan nan nan
871 706 555 467 621 621 872 922 853 853 746 709 668 668 592 561 561 495 468 475 475 385 149 35 105 105 278 545 650 650 604 608 641 641 627 481 481 268 42 nan nan nan nan nan nan nan nan nan nan nan nan nan nan nan nan nan nan nan nan nan nan 0 11 14 5 5 1 nan 0 0 12 20 28 28 21 10 10 3 nan nan nan nan nan nan nan nan nan nan nan nan nan nan nan nan nan nan nan nan nan nan nan nan nan
650 614 540 382 494 494 734 868 881 881 898 863 822 822 739 625 625 557 496 544 544 485 174 27 96 96 378 660 725 725 592 585 657 657 602 459 459 250 40 nan nan nan nan nan nan nan nan nan nan nan nan nan nan nan nan nan nan nan nan nan nan 3 11 13 7 7 2 0 0 0 7 18 26 26 19 11 11 3 nan nan nan nan nan nan nan nan nan nan nan nan nan nan nan nan nan nan nan nan nan nan nan nan nan
643 569 395 234 349 349 565 735 872 872 971 938 899 899 813 734 734 624 524 614 614 553 220 29 123 123 421 663 682 682 587 534 560 560 478 407 407 235 43 0 0 nan nan nan nan nan nan nan nan nan nan nan nan nan nan nan nan nan nan nan nan 7 15 12 8 8 2 2 1 1 5 16 23 23 22 14 14 5 nan nan nan nan nan nan nan nan nan nan nan nan nan nan nan nan nan nan nan nan nan nan nan nan nan
412 324 175 160 211 211 382 531 740 740 878 930 934 934 849 809 809 694 591 645 645 622 294 70 130 130 394 585 565 565 508 493 375 375 336 280 280 207 46 0 0 nan nan nan nan nan nan nan nan nan nan nan nan nan nan nan nan nan nan nan nan 10 16 13 7 7 2 2 2 2 7 10 19 19 20 15 15 4 nan nan nan nan nan nan nan nan nan nan nan nan nan nan nan nan nan nan nan nan nan nan nan nan nan
91 65 46 97 161 161 237 356 538 538 748 883 844 844 720 720 720 769 700 717 717 652 373 139 172 172 338 443 531 531 247 261 223 223 196 182 182 165 27 0 0 nan nan nan nan nan nan nan nan nan nan nan nan nan nan nan nan nan nan 1 1 12 18 15 8 8 3 0 1 1 5 8 14 14 14 9 9 3 nan nan nan nan nan nan nan nan nan nan nan nan nan nan nan nan nan nan nan nan nan nan nan nan 1
13 17 25 48 82 82 123 217 336 336 509 712 677 677 600 598 598 720 733 836 836 766 497 243 220 220 281 382 389 389 64 4 37 37 137 184 184 149 14 0 0 nan nan nan nan nan nan nan nan nan nan nan nan nan nan nan nan nan nan 1 1 18 22 15 10 10 3 0 0 0 2 8 9 9 9 5 5 0 nan nan nan nan nan nan nan nan nan nan nan nan nan nan nan nan nan nan nan nan nan nan nan 1 5
1 10 18 24 49 49 69 128 227 227 345 516 561 561 528 491 491 562 686 829 829 846 644 313 287 287 282 321 242 242 17 nan 1 1 11 93 93 140 14 nan nan nan nan nan nan nan nan nan nan nan nan nan nan nan nan nan nan nan nan 2 2 19 43 25 13 13 4 0 nan nan 1 2 3 3 2 2 2 nan nan nan nan nan nan nan nan nan nan nan nan nan nan nan nan nan nan nan nan nan 0 3 3 6 11
nan 2 6 10 14 14 19 44 113 113 185 292 359 359 605 574 574 467 431 621 621 799 730 612 381 381 323 95 31 31 nan nan nan nan 1 nan nan nan nan nan nan nan nan nan nan nan nan nan nan nan nan nan nan nan nan nan nan nan nan 2 2 34 85 79 28 28 8 2 1 1 1 0 nan nan nan nan nan nan nan 1 1 2 3 2 1 1 0 nan nan nan nan nan nan nan nan 2 2 5 11 17 17 24 29
6 3 4 7 10 10 13 27 79 79 161 260 168 168 199 296 296 473 472 514 514 718 817 702 159 159 23 7 6 6 nan nan nan nan nan nan nan nan nan nan nan nan nan nan nan nan nan nan nan nan nan nan nan nan nan nan nan nan nan 4 4 49 142 128 53 53 13 6 5 5 5 3 0 0 nan nan nan 0 2 3 3 7 8 10 10 10 8 6 5 5 3 2 1 1 1 5 5 9 19 27 27 32 45
116 23 22 16 10 10 10 15 45 45 105 170 182 182 109 135 135 210 299 219 219 271 376 449 118 118 39 6 4 4 2 nan nan nan nan nan nan nan nan nan nan nan nan nan nan nan nan nan nan nan nan nan nan nan nan nan nan nan nan 3 3 64 186 216 113 113 25 11 9 9 10 10 7 7 0 0 0 2 3 9 9 13 17 19 19 19 19 17 14 14 14 11 8 8 10 13 13 19 28 39 39 51 67
134 126 96 83 40 40 17 11 37 37 65 63 214 214 105 56 56 74 145 193 193 93 19 155 160 160 58 38 50 50 33 nan nan nan nan nan nan nan nan nan nan nan nan nan nan nan nan nan nan nan nan nan nan nan nan nan nan nan nan 3 3 79 257 294 224 224 83 21 14 14 15 18 17 17 10 9 9 10 12 18 18 22 28 30 32 32 32 28 30 30 28 23 19 19 21 24 24 27 46 75 75 95 114
165 107 81 152 126 126 35 15 34 34 35 70 207 207 130 66 66 63 92 244 244 184 118 45 131 131 187 153 108 108 60 5 nan nan nan nan nan nan nan nan nan nan nan nan nan nan nan nan nan nan nan nan nan nan nan nan nan nan nan 3 3 97 280 380 305 305 187 74 31 31 26 33 30 30 28 27 27 23 25 32 32 37 41 46 50 50 48 45 46 46 46 38 34 34 35 45 45 69 95 137 137 160 169
221 192 220 266 249 249 101 53 39 39 25 38 146 146 157 73 73 29 92 188 188 192 215 195 203 203 302 283 184 184 81 23 nan nan nan nan nan nan nan nan nan nan nan nan nan nan nan nan nan nan nan nan nan nan nan nan nan nan nan 4 4 79 277 442 393 393 265 153 100 100 76 71 74 74 55 45 45 39 40 44 44 50 57 64 61 61 66 73 71 71 70 59 75 75 76 90 90 127 158 207 207 217 244
138 134 267 377 357 357 249 162 69 69 36 22 71 71 137 60 60 11 32 124 124 196 221 201 188 188 283 344 300 300 181 91 8 8 nan nan nan nan nan nan nan nan nan nan nan nan nan nan nan nan nan nan nan nan nan nan nan nan nan 2 2 45 248 473 488 488 408 276 185 185 171 155 158 158 119 86 86 62 60 57 57 69 82 87 110 110 97 107 109 109 119 113 125 125 134 160 160 193 224 255 255 288 299
71 37 99 135 190 190 200 188 131 131 57 35 33 33 109 78 78 17 7 42 42 143 183 170 175 175 221 300 361 361 315 209 83 83 3 nan nan nan nan nan nan nan nan nan nan nan nan nan nan nan nan nan nan nan nan nan nan nan nan 0 0 22 221 505 625 625 537 358 284 284 266 245 250 250 201 153 153 112 106 99 99 117 122 132 167 167 174 182 192 192 179 189 179 179 193 210 210 205 235 287 287 298 308
9 19 24 13 46 46 92 95 173 173 137 71 36 36 72 91 91 26 7 5 5 63 132 140 142 142 165 214 317 317 377 324 198 198 87 7 7 nan nan nan nan nan nan nan nan nan nan nan nan nan nan nan nan nan nan nan nan nan nan 0 0 16 175 469 657 657 603 484 366 366 341 348 352 352 298 245 245 195 196 195 195 187 186 219 229 229 240 254 260 260 271 310 292 292 252 241 241 235 246 256 256 265 214
8 15 13 9 13 13 45 17 37 37 112 96 84 84 91 92 92 29 6 2 2 13 66 95 88 88 118 157 227 227 333 416 285 285 170 92 92 45 2 nan nan nan nan nan nan nan nan nan nan nan nan nan nan nan nan nan nan nan nan nan nan 7 96 400 617 617 710 653 525 525 398 399 401 401 374 317 317 262 238 244 244 240 237 266 243 243 252 263 244 244 255 297 307 307 265 254 254 224 217 226 226 194 170
9 9 11 15 17 17 20 15 21 21 41 49 58 58 113 104 104 41 4 1 1 4 30 44 48 48 82 100 169 169 222 274 319 319 214 141 141 85 30 1 1 nan nan nan nan nan nan nan nan nan nan nan nan nan nan nan nan nan nan nan nan nan 25 243 549 549 818 830 733 733 559 456 454 454 456 363 363 306 252 288 288 290 259 227 203 203 182 186 194 194 204 220 264 264 250 239 239 210 184 178 178 139 131
nan 1 6 13 36 36 32 28 33 33 60 23 19 19 59 83 83 44 7 1 1 1 10 20 23 23 41 65 108 108 131 193 162 162 242 181 181 131 62 14 14 nan nan nan nan nan nan nan nan nan nan nan nan nan nan nan nan nan nan nan nan nan 9 97 444 444 809 968 942 942 767 553 514 514 477 446 446 352 327 272 272 278 217 190 164 164 149 133 135 135 142 152 163 163 202 194 194 188 166 160 160 124 120
9 1 nan nan 1 1 11 40 71 71 45 21 1 1 1 39 39 30 13 5 5 2 3 19 16 16 32 44 47 47 72 152 161 161 184 186 186 170 121 28 28 nan nan nan nan nan nan nan nan nan nan nan nan nan nan nan nan nan nan nan nan nan nan 22 174 174 583 993 1084 1084 978 718 580 580 539 505 505 438 342 286 286 264 208 178 128 128 101 109 133 133 124 130 123 123 146 156 156 136 135 116 116 101 110
27 21 0 nan 1 1 1 11 11 11 20 1 0 0 nan 3 3 8 15 14 14 6 6 9 15 15 30 41 26 26 38 88 122 122 126 167 167 173 159 72 72 7 nan nan nan nan nan nan nan nan nan nan nan nan nan nan nan nan nan nan nan nan nan 3 39 39 336 795 1074 1074 1083 926 711 711 626 565 565 504 395 335 335 279 255 196 144 144 105 117 109 109 117 120 112 112 130 123 123 132 100 84 84 81 88
20 40 22 0 0 0 2 8 10 10 6 11 10 10 12 nan nan 2 25 38 38 16 9 19 28 28 36 47 32 32 37 75 89 89 104 125 125 133 180 103 103 45 1 nan nan nan nan nan nan nan nan nan nan nan nan nan nan nan nan nan nan nan nan nan 8 8 74 470 870 870 1107 1072 884 884 696 587 587 557 454 353 353 297 272 243 212 212 161 124 118 118 115 113 107 107 104 96 96 102 96 92 92 86 93
nan 19 42 24 3 3 2 11 2 2 7 23 16 16 10 nan nan 0 10 71 71 36 20 24 41 41 55 65 60 60 57 62 73 73 98 119 119 93 136 121 121 72 22 nan nan nan nan nan nan nan nan nan nan nan nan nan nan nan nan nan nan nan nan nan 0 0 14 145 569 569 936 1096 1027 1027 767 625 625 543 547 445 445 344 289 292 230 230 204 185 146 146 119 107 93 93 80 83 83 86 81 86 86 91 97
nan nan 17 45 24 24 6 2 5 5 nan 19 20 20 13 4 4 2 28 99 99 63 26 19 25 25 53 94 99 99 81 60 84 84 78 111 111 86 113 102 102 75 22 nan nan nan nan nan nan nan nan nan nan nan nan nan nan nan nan nan nan nan nan nan nan nan 0 21 212 212 664 1006 1092 1092 866 647 647 603 642 498 498 399 304 310 279 279 219 172 157 157 126 114 95 95 77 70 70 71 73 86 86 105 131
nan nan 6 27 45 45 16 1 1 1 0 4 18 18 20 14 14 19 44 109 109 93 43 14 27 27 36 111 136 136 109 86 84 84 71 71 71 66 76 85 85 47 22 2 nan nan nan nan nan nan nan nan nan nan nan nan nan nan nan nan nan nan nan nan nan nan nan 1 33 33 321 731 1038 1038 921 702 702 596 675 633 633 460 358 297 268 268 208 161 123 123 120 121 109 109 84 66 66 56 63 103 103 144 145
nan nan 0 14 33 33 42 10 0 0 nan nan 8 8 11 14 14 14 14 34 34 71 33 6 28 28 75 118 147 147 132 104 79 79 72 39 39 51 76 86 86 35 24 1 nan nan nan nan nan nan nan nan nan nan nan nan nan nan nan nan nan nan nan nan nan nan nan nan 5 5 54 412 832 832 942 719 719 548 588 624 624 522 382 286 227 227 175 152 118 118 118 116 103 103 79 62 62 60 82 116 116 130 111
nan nan nan 3 20 20 32 27 0 0 7 6 0 0 nan nan nan 12 nan nan nan 11 19 1 13 13 72 120 126 126 199 83 53 53 77 37 37 40 50 57 57 36 27 3 nan nan nan nan nan nan nan nan nan nan nan nan nan nan nan nan nan nan nan nan nan nan nan nan nan nan 16 105 533 533 854 780 780 606 573 649 649 579 477 378 221 221 148 110 106 106 113 109 97 97 84 77 77 89 106 103 103 75 44
nan nan nan 0 6 6 11 14 9 9 17 9 1 1 nan nan nan 1 20 0 0 4 14 3 7 7 24 99 119 119 199 57 21 21 66 38 38 41 29 45 45 29 22 13 4 4 3 nan nan nan nan nan nan nan nan nan nan nan nan nan nan nan nan nan nan nan nan nan nan nan 1 36 239 239 590 771 771 738 704 668 668 635 532 401 217 217 105 81 74 74 80 82 100 100 99 104 104 108 102 67 67 36 25
nan nan nan 1 14 14 30 30 13 13 10 10 1 1 0 1 1 11 21 31 31 12 18 3 3 3 28 144 121 121 112 66 37 37 85 67 67 46 30 18 18 15 16 21 11 11 8 2 nan nan nan nan nan nan nan nan nan nan nan nan nan nan nan nan nan nan nan nan nan nan nan 17 71 71 294 588 588 726 762 763 763 620 447 289 164 164 91 66 52 52 47 53 81 81 81 96 96 93 53 34 34 24 18
nan nan nan 3 11 11 29 38 31 31 21 10 5 5 2 6 6 42 39 28 28 15 8 2 8 8 39 109 91 91 64 62 46 46 79 74 74 61 33 20 20 9 13 25 18 18 9 2 nan nan nan nan nan nan nan nan nan nan nan nan nan nan nan nan nan nan nan nan nan nan nan 6 32 32 100 324 324 509 501 430 430 335 252 160 108 108 76 57 45 45 37 31 29 29 30 34 34 33 24 17 17 12 11
nan nan nan nan 7 7 26 46 64 64 70 37 23 23 19 12 12 3 8 16 16 11 2 0 nan nan 18 16 5 5 3 9 12 12 39 102 102 64 45 24 24 21 6 14 13 13 2 nan nan nan nan nan nan nan nan nan nan nan nan nan nan nan nan nan nan nan nan nan nan nan nan nan 5 5 13 33 33 45 45 40 40 51 65 81 77 77 68 56 47 47 37 24 11 11 5 2 2 2 1 2 2 2 3
nan nan nan nan nan nan 7 39 58 58 60 42 11 11 27 41 41 12 6 7 7 10 3 1 nan nan 2 13 nan nan 0 0 5 5 24 91 91 76 53 31 31 27 11 8 6 6 1 nan nan nan nan nan nan nan nan nan nan nan nan nan nan nan nan nan nan nan nan nan nan nan nan nan nan nan nan 6 6 25 24 20 20 24 39 56 61 61 61 57 47 47 40 27 14 14 5 2 2 0 nan nan nan 4 4
nan nan nan nan nan nan nan 1 33 33 45 45 26 26 8 9 9 41 19 5 5 6 4 1 nan nan nan 8 nan nan 4 2 9 9 15 70 70 57 50 36 36 29 23 6 nan nan nan nan nan nan nan nan nan nan nan nan nan nan nan nan nan nan nan nan nan nan nan nan nan nan nan nan nan nan nan nan nan nan nan 4 4 11 21 28 42 42 47 45 45 45 41 30 15 15 4 0 0 nan nan 3 3 6 5
nan nan nan nan nan nan nan nan 4 4 25 37 45 45 24 4 4 22 22 13 13 5 6 8 nan nan 0 7 4 4 12 6 2 2 22 56 56 60 62 42 42 36 27 7 nan nan nan nan nan nan nan nan nan nan nan nan nan nan nan nan nan nan nan nan nan nan nan nan nan nan nan nan nan nan nan nan nan nan nan nan nan 1 6 11 20 20 31 34 37 37 36 31 15 15 3 0 0 nan 2 6 6 5 4
nan nan nan nan nan nan nan nan nan nan 10 23 42 42 40 24 24 14 16 16 16 6 3 11 8 8 0 15 7 7 15 11 6 6 5 40 40 41 83 33 33 9 3 3 nan nan nan nan nan nan nan nan nan nan nan nan nan nan nan nan nan nan nan nan nan nan nan nan nan nan nan nan nan nan nan nan nan nan nan nan nan nan nan 1 5 5 16 20 28 28 31 28 13 13 2 nan nan 0 6 7 7 4 6
nan nan nan nan nan nan nan nan 1 1 6 12 19 19 38 47 47 21 12 17 17 12 3 13 14 14 6 8 10 10 8 6 7 7 12 30 30 17 9 3 3 nan nan nan nan nan nan nan nan nan nan nan nan nan nan nan nan nan nan nan nan nan nan nan nan nan nan nan nan nan nan nan nan nan nan nan nan nan nan nan nan nan nan nan nan nan 3 10 17 17 24 21 9 9 0 nan nan 1 7 6 6 7 10
nan nan nan nan nan nan nan nan 5 5 9 12 13 13 18 36 36 21 8 6 6 11 5 6 19 19 13 15 20 20 7 6 2 2 10 18 18 13 nan nan nan nan nan nan nan nan nan nan nan nan nan nan nan nan nan nan nan nan nan nan nan nan nan nan nan nan nan nan nan nan nan nan nan nan nan nan nan nan nan nan nan nan nan nan nan nan nan 1 9 9 17 14 4 4 nan nan nan 2 7 8 8 12 19
nan nan nan nan nan nan nan 0 6 6 23 25 18 18 17 31 31 37 19 10 10 23 29 12 9 9 14 16 28 28 14 11 3 3 nan 3 3 1 2 nan nan nan nan nan nan nan nan nan nan nan nan nan nan nan nan nan nan nan nan nan nan nan nan nan nan nan nan nan nan nan nan nan nan nan nan nan nan nan nan nan nan nan nan nan nan nan nan nan 4 4 10 10 2 2 nan 0 0 3 6 11 11 21 34
nan nan nan nan nan nan nan nan 5 5 22 33 29 29 24 22 22 34 35 31 31 21 52 42 8 8 14 17 23 23 23 14 6 6 3 3 3 nan 3 3 3 nan nan nan 0 0 nan nan nan nan nan nan nan nan nan nan nan nan nan nan nan nan nan nan nan nan nan nan nan nan nan nan nan nan nan nan nan nan nan nan nan nan nan nan nan nan nan nan nan nan 5 7 3 3 0 1 1 3 6 12 12 24 40
nan nan nan nan nan nan nan 7 16 16 24 30 28 28 23 18 18 23 33 52 52 50 37 59 29 29 10 18 10 10 19 13 4 4 8 nan nan nan nan 0 0 nan nan nan 0 0 nan nan nan nan nan nan nan nan nan nan nan nan nan nan nan nan nan nan nan nan nan nan nan nan nan nan nan nan nan nan nan nan nan nan nan nan nan nan nan nan nan nan nan nan 0 3 5 5 2 2 2 2 7 12 12 26 46
nan nan nan nan nan nan 0 19 45 45 47 43 45 45 42 27 27 22 24 44 44 72 66 39 45 45 35 16 8 8 7 14 11 11 12 nan nan nan nan 0 0 nan nan nan nan nan nan nan nan nan nan nan nan nan nan nan nan nan nan nan nan nan nan nan nan nan nan nan nan nan nan nan nan nan nan nan nan nan nan nan nan nan nan nan nan nan nan nan nan nan nan 1 7 7 4 2 2 2 8 14 14 25 46
nan nan nan nan nan nan nan 6 50 50 95 72 62 62 57 46 46 34 29 40 40 50 64 54 38 38 68 30 6 6 nan 6 13 13 20 nan nan 0 1 nan nan nan nan nan 3 3 nan nan nan nan nan nan nan nan nan nan nan nan nan nan nan nan nan nan nan nan nan nan nan nan nan nan nan nan nan nan nan nan nan nan nan nan nan nan nan nan nan nan nan nan nan nan 3 3 6 2 2 3 10 18 18 24 41
nan nan nan nan nan nan nan nan 16 16 65 108 81 81 57 46 46 40 31 34 34 49 52 50 47 47 61 50 18 18 1 0 5 5 23 8 8 1 2 nan nan nan nan nan 2 2 nan nan nan nan nan nan nan nan nan nan nan nan nan nan nan nan nan nan nan nan nan nan nan nan nan nan nan nan nan nan nan nan nan nan nan nan nan nan nan nan nan nan nan nan nan nan nan nan 2 3 3 6 13 20 20 24 31
nan nan nan nan nan nan nan nan nan nan 30 69 86 86 79 55 55 31 23 25 25 57 57 58 81 81 85 61 38 38 7 nan nan nan 14 19 19 0 10 0 0 nan nan nan nan nan nan nan nan nan nan nan nan nan nan nan nan nan nan nan nan nan nan nan nan nan nan nan nan nan nan nan nan nan nan nan nan nan nan nan nan nan nan nan nan nan nan nan nan nan nan nan nan nan nan 2 2 9 18 26 26 27 29
nan nan nan nan nan nan nan nan nan nan 11 41 64 64 80 77 77 43 27 30 30 59 61 62 70 70 60 67 78 78 48 9 0 0 4 26 26 17 3 6 6 3 nan nan nan nan nan nan nan nan nan nan nan nan nan nan nan nan nan nan nan nan nan nan nan nan nan nan nan nan nan nan nan nan nan nan nan nan nan nan nan nan nan nan nan nan nan nan nan nan nan nan nan nan nan 1 1 13 21 35 35 34 28
nan nan nan nan nan nan nan nan nan nan 5 27 52 52 65 74 74 61 37 18 18 30 58 62 46 46 13 51 163 163 117 42 5 5 nan 12 12 27 13 3 3 nan nan nan nan nan nan nan nan nan nan nan nan nan nan nan nan nan nan nan nan nan nan nan nan nan nan nan nan nan nan nan nan nan nan nan nan nan nan nan nan nan nan nan nan nan nan nan nan nan nan nan nan nan nan nan nan 12 23 38 38 43 36
nan nan nan nan nan nan nan nan nan nan 0 22 38 38 62 63 63 75 91 9 9 11 45 48 51 51 18 11 28 28 42 67 10 10 0 0 0 8 6 nan nan nan nan nan nan nan nan nan nan nan nan nan nan nan nan nan nan nan nan nan nan nan nan nan nan nan nan nan nan nan nan nan nan nan nan nan nan nan nan nan nan nan nan nan nan nan nan nan nan nan nan nan nan nan nan nan nan 10 25 43 43 47 40
nan nan nan nan nan nan nan nan nan nan nan 12 33 33 36 32 32 71 135 111 111 61 86 99 99 99 89 51 9 9 19 71 15 15 4 1 1 0 nan nan nan nan nan nan nan nan nan nan nan nan nan nan nan nan nan nan nan nan nan nan nan nan nan nan nan nan nan nan nan nan nan nan nan nan nan nan nan nan nan nan nan nan nan nan nan nan nan nan nan nan nan nan nan nan nan nan nan 13 32 51 51 47 40
nan nan nan nan nan nan nan nan nan nan nan 29 64 64 42 22 22 32 168 246 246 205 172 144 140 140 184 196 125 125 109 99 28 28 11 4 4 nan nan nan nan nan nan nan nan nan nan nan nan nan nan nan nan nan nan nan nan nan nan nan nan nan nan nan nan nan nan nan nan nan nan nan nan nan nan nan nan nan nan nan nan nan nan nan nan nan nan nan nan nan nan nan nan nan nan nan nan 13 34 52 52 47 40